GW0203 Weather Reports


Display with metric or nautical units.
time (UTC)temp
F
wind
direction
speed
MPH
gust
MPH
rain 1hr
in
rain 24hr
in
rain mn
in
humidity
%
barometer
mb
20260508191705 58 253 8.0 15.0 0.00 0.00 0.00 47 1008.4
20260508190200 59 335 8.0 26.0 0.00 0.00 0.00 41 1008.1
20260508184658 59 317 4.0 10.0 0.00 0.00 0.00 49 1007.9
20260508183153 60 194 3.0 11.0 0.00 0.00 0.00 44 1008.0
20260508181653 62 156 2.0 4.0 0.00 0.00 0.00 39 1008.1
20260508180150 62 350 2.0 11.0 0.00 0.00 0.00 36 1007.8
20260508174647 60 119 3.0 6.0 0.00 0.00 0.00 49 1008.3
20260508173142 58 239 5.0 7.0 0.00 0.00 0.00 51 1008.4
20260508171639 62 186 3.0 4.0 0.00 0.00 0.00 43 1008.5
20260508170136 61 277 1.0 3.0 0.00 0.00 0.00 43 1008.4
20260508164632 61 315 3.0 7.0 0.00 0.00 0.00 43 1008.6
20260508163129 62 270 2.0 10.0 0.00 0.00 0.00 40 1008.7
20260508161625 61 318 7.0 14.0 0.00 0.00 0.00 40 1008.7
20260508160124 60 314 4.0 8.0 0.00 0.00 0.00 41 1009.0
20260508154621 60 221 4.0 8.0 0.00 0.00 0.00 39 1009.3
20260508153117 58 328 10.0 13.0 0.00 0.00 0.00 43 1009.5
20260508151612 59 223 5.0 13.0 0.00 0.00 0.00 40 1009.3
20260508150108 59 219 6.0 12.0 0.00 0.00 0.00 41 1009.5
20260508144605 57 299 2.0 13.0 0.00 0.00 0.00 41 1009.6
20260508143102 57 318 3.0 18.0 0.00 0.00 0.00 42 1009.5
20260508141558 56 305 4.0 14.0 0.00 0.00 0.00 42 1009.5
20260508140055 56 338 3.0 8.0 0.00 0.00 0.00 44 1009.6
20260508134555 54 2 4.0 9.0 0.00 0.00 0.00 45 1009.9
20260508133052 53 319 7.0 11.0 0.00 0.00 0.00 45 1009.9
20260508131548 53 356 3.0 14.0 0.00 0.00 0.00 45 1010.0
20260508130044 53 359 5.0 9.0 0.00 0.00 0.00 49 1010.1
20260508124542 51 338 5.0 8.0 0.00 0.00 0.00 52 1009.9
20260508123038 50 346 3.0 5.0 0.00 0.00 0.00 56 1010.0
20260508121536 49 340 3.0 8.0 0.00 0.00 0.00 56 1010.0
20260508120035 50 249 1.0 7.0 0.00 0.00 0.00 55 1009.9
20260508114531 50 0 2.0 5.0 0.00 0.00 0.00 58 1009.8
20260508113028 48 350 0.0 3.0 0.00 0.00 0.00 56 1009.9
20260508111524 47 348 3.0 4.0 0.00 0.00 0.00 57 1009.8
20260508110020 47 324 2.0 3.0 0.00 0.00 0.00 60 1009.7
20260508104517 47 356 2.0 3.0 0.00 0.00 0.00 58 1009.6
20260508103013 46 332 2.0 5.0 0.00 0.00 0.00 59 1009.8
20260508101511 46 339 3.0 4.0 0.00 0.00 0.00 57 1009.1
20260508100009 46 291 1.0 4.0 0.00 0.00 0.00 56 1009.0
20260508094506 46 319 2.0 3.0 0.00 0.00 0.00 58 1009.0
20260508093003 45 300 0.0 4.0 0.00 0.00 0.00 59 1009.1
20260508091501 46 319 2.0 5.0 0.00 0.00 0.00 57 1008.6
20260508085958 45 325 1.0 4.0 0.00 0.00 0.00 58 1008.7
20260508084454 45 11 1.0 4.0 0.00 0.00 0.00 58 1008.7
20260508082950 45 349 1.0 5.0 0.00 0.00 0.00 59 1008.6
20260508081447 46 318 3.0 3.0 0.00 0.00 0.00 57 1008.3
20260508075944 46 340 3.0 6.0 0.00 0.00 0.00 55 1008.2
20260508074442 46 332 4.0 5.0 0.00 0.00 0.00 55 1007.9
20260508072939 47 328 3.0 4.0 0.00 0.00 0.00 54 1007.3
20260508071437 47 337 1.0 5.0 0.00 0.00 0.00 53 1007.5
20260508065935 47 212 1.0 3.0 0.00 0.00 0.00 52 1007.4
20260508064433 48 15 0.0 5.0 0.00 0.00 0.00 51 1007.3
20260508062931 49 359 5.0 6.0 0.00 0.00 0.00 50 1006.8
20260508061429 49 24 0.0 4.0 0.00 0.00 0.00 50 1006.9
20260508055925 49 342 3.0 5.0 0.00 0.00 0.00 50 1007.1
20260508054422 50 346 4.0 6.0 0.00 0.00 0.00 49 1006.8
20260508052919 50 331 4.0 4.0 0.00 0.00 0.00 48 1007.1
20260508051414 51 351 7.0 9.0 0.00 0.00 0.00 46 1007.0
20260508045909 52 319 9.0 12.0 0.00 0.00 0.00 44 1007.1
20260508044407 52 326 4.0 6.0 0.00 0.00 0.00 45 1007.3
20260508042902 52 0 2.0 10.0 0.00 0.00 0.00 44 1007.2
20260508041359 53 324 9.0 12.0 0.00 0.00 0.00 43 1007.2
20260508035856 53 32 4.0 10.0 0.00 0.31 0.31 43 1007.1
20260508034353 53 351 5.0 8.0 0.00 0.31 0.31 42 1007.1
20260508032851 53 310 12.0 12.0 0.00 0.31 0.31 42 1007.3
20260508031348 53 357 3.0 6.0 0.00 0.31 0.31 43 1007.3
20260508025844 53 299 5.0 11.0 0.00 0.31 0.31 42 1007.2
20260508024340 54 302 6.0 10.0 0.00 0.31 0.31 42 1007.5
20260508022836 53 334 8.0 13.0 0.00 0.31 0.31 42 1007.4
20260508021331 54 315 5.0 8.0 0.00 0.31 0.31 42 1007.5
20260508015828 54 322 0.0 15.0 0.00 0.31 0.31 41 1007.6
20260508014325 55 289 5.0 11.0 0.00 0.31 0.31 42 1007.6
20260508012825 55 19 2.0 7.0 0.00 0.31 0.31 41 1007.4
20260508011323 55 328 3.0 12.0 0.00 0.31 0.31 43 1007.4
20260508005821 55 335 5.0 8.0 0.00 0.31 0.31 42 1007.1
20260508004316 56 354 4.0 6.0 0.00 0.31 0.31 41 1007.0
20260508002812 57 321 2.0 9.0 0.00 0.31 0.31 40 1006.9
20260508001307 57 312 0.0 7.0 0.00 0.31 0.31 39 1006.2
20260507235802 57 16 3.0 9.0 0.00 0.31 0.31 40 1006.2
20260507234258 58 343 5.0 15.0 0.00 0.31 0.31 38 1005.8
20260507232756 59 320 9.0 19.0 0.00 0.31 0.31 38 1005.6
20260507231252 61 326 8.0 13.0 0.00 0.31 0.31 36 1005.5
20260507225751 62 320 0.0 12.0 0.00 0.31 0.31 34 1005.3
20260507224246 63 313 6.0 11.0 0.00 0.31 0.31 35 1005.1
20260507222742 64 345 10.0 15.0 0.00 0.31 0.31 35 1005.1
20260507221237 64 355 6.0 16.0 0.00 0.31 0.31 33 1004.9
20260507215734 64 241 2.0 19.0 0.00 0.31 0.31 33 1004.9
20260507214232 65 315 4.0 13.0 0.00 0.31 0.31 32 1004.8
20260507212732 64 352 7.0 14.0 0.00 0.31 0.31 31 1004.5
20260507211227 65 302 7.0 12.0 0.00 0.31 0.31 30 1004.6
20260507205724 65 328 4.0 12.0 0.00 0.31 0.31 30 1004.6
20260507204221 65 331 3.0 12.0 0.00 0.31 0.31 31 1004.4
20260507202717 66 0 2.0 9.0 0.00 0.31 0.31 32 1004.6
20260507201217 65 7 8.0 17.0 0.00 0.31 0.31 32 1004.4
20260507195712 68 270 0.0 7.0 0.00 0.31 0.31 30 1004.4
20260507194208 67 299 4.0 13.0 0.00 0.31 0.31 33 1004.6
20260507192704 67 254 6.0 7.0 0.00 0.31 0.31 34 1004.8